Meteo orario Koziny

Oggi, 4 Marzo, Giovedi

Tempo Temperatura Precipitazioni Vento Pressione Umidità
00:00 +1°C° 0 mm 3 m/s 752 mm Hg 90%
01:00 +1°C° 0 mm 3 m/s 751 mm Hg 92%
02:00 +1°C° 0 mm 3 m/s 750 mm Hg 93%
03:00 +1°C° 0 mm 3 m/s 750 mm Hg 94%
04:00 +1°C° 0 mm 3 m/s 749 mm Hg 95%
05:00 0°C° 0 mm 3 m/s 749 mm Hg 95%
06:00 0°C° 0 mm 3 m/s 749 mm Hg 95%
07:00 0°C° 0 mm 3 m/s 749 mm Hg 95%
08:00 -1°C° 0 mm 4 m/s 749 mm Hg 91%
09:00 0°C° 0 mm 4 m/s 749 mm Hg 88%
10:00 +1°C° 0 mm 5 m/s 750 mm Hg 85%
11:00 +1°C° 0 mm 5 m/s 750 mm Hg 84%
12:00 +1°C° 0 mm 4 m/s 750 mm Hg 84%
13:00 +1°C° 0 mm 4 m/s 750 mm Hg 84%
14:00 0°C° 0.1 mm 4 m/s 750 mm Hg 87%
15:00 -1°C° 0.1 mm 4 m/s 750 mm Hg 90%
16:00 -2°C° 0.1 mm 5 m/s 750 mm Hg 94%
17:00 -2°C° 0 mm 4 m/s 750 mm Hg 90%
18:00 -1°C° 0 mm 3 m/s 750 mm Hg 86%
19:00 -1°C° 0 mm 2 m/s 750 mm Hg 82%
20:00 -2°C° 0 mm 2 m/s 751 mm Hg 83%
21:00 -2°C° 0 mm 2 m/s 751 mm Hg 84%
22:00 -3°C° 0 mm 2 m/s 752 mm Hg 85%
23:00 -3°C° 0 mm 2 m/s 752 mm Hg 85%

Domani, 5 Marzo, Venerdi

Tempo Temperatura Precipitazioni Vento Pressione Umidità
00:00 -3°C° 0 mm 2 m/s 752 mm Hg 86%
01:00 -3°C° 0 mm 2 m/s 752 mm Hg 86%
02:00 -3°C° 0 mm 2 m/s 752 mm Hg 86%
03:00 -3°C° 0 mm 2 m/s 752 mm Hg 85%
04:00 -3°C° 0 mm 2 m/s 752 mm Hg 85%
05:00 -3°C° 0 mm 2 m/s 753 mm Hg 83%
06:00 -3°C° 0 mm 2 m/s 753 mm Hg 82%
07:00 -3°C° 0 mm 2 m/s 753 mm Hg 81%
08:00 -2°C° 0 mm 3 m/s 754 mm Hg 72%
09:00 -1°C° 0 mm 4 m/s 754 mm Hg 64%
10:00 0°C° 0 mm 4 m/s 755 mm Hg 56%
11:00 0°C° 0.1 mm 4 m/s 755 mm Hg 52%
12:00 +1°C° 0.1 mm 5 m/s 755 mm Hg 48%
13:00 +1°C° 0.1 mm 5 m/s 755 mm Hg 45%
14:00 +1°C° 0.1 mm 4 m/s 755 mm Hg 48%
15:00 0°C° 0.1 mm 4 m/s 756 mm Hg 52%
16:00 0°C° 0.1 mm 4 m/s 756 mm Hg 56%
17:00 0°C° 0.1 mm 3 m/s 756 mm Hg 63%
18:00 -1°C° 0.1 mm 3 m/s 757 mm Hg 71%
19:00 -4°C° 0.1 mm 3 m/s 757 mm Hg 79%
20:00 -4°C° 0 mm 3 m/s 758 mm Hg 80%
21:00 -4°C° 0 mm 3 m/s 758 mm Hg 80%
22:00 -4°C° 0 mm 3 m/s 759 mm Hg 81%
23:00 -4°C° 0 mm 3 m/s 759 mm Hg 80%

Dopodomani, 6 Marzo, Sabato

Tempo Temperatura Precipitazioni Vento Pressione Umidità
00:00 -4°C° 0 mm 3 m/s 760 mm Hg 79%
01:00 -3°C° 0 mm 2 m/s 760 mm Hg 78%
02:00 -3°C° 0 mm 2 m/s 760 mm Hg 76%
03:00 -3°C° 0 mm 2 m/s 760 mm Hg 75%
04:00 -4°C° 0 mm 3 m/s 760 mm Hg 73%
05:00 -3°C° 0 mm 2 m/s 760 mm Hg 72%
06:00 -3°C° 0 mm 2 m/s 761 mm Hg 72%
07:00 -3°C° 0 mm 2 m/s 761 mm Hg 72%
08:00 -2°C° 0 mm 2 m/s 761 mm Hg 65%
09:00 -1°C° 0 mm 3 m/s 761 mm Hg 58%
10:00 +1°C° 0 mm 3 m/s 761 mm Hg 51%
11:00 0°C° 0 mm 4 m/s 761 mm Hg 48%
12:00 +1°C° 0 mm 4 m/s 761 mm Hg 45%
13:00 +1°C° 0 mm 5 m/s 760 mm Hg 42%
14:00 +1°C° 0 mm 5 m/s 760 mm Hg 44%
15:00 +1°C° 0 mm 5 m/s 759 mm Hg 47%
16:00 +1°C° 0 mm 5 m/s 758 mm Hg 49%
17:00 0°C° 0 mm 5 m/s 758 mm Hg 51%
18:00 -1°C° 0 mm 5 m/s 757 mm Hg 54%
19:00 -3°C° 0 mm 6 m/s 757 mm Hg 56%
20:00 -3°C° 0 mm 6 m/s 756 mm Hg 65%
21:00 -3°C° 0 mm 6 m/s 756 mm Hg 75%
22:00 -3°C° 0 mm 7 m/s 756 mm Hg 84%
23:00 -3°C° 0.1 mm 7 m/s 755 mm Hg 84%

7 Marzo, Domenica

Tempo Temperatura Precipitazioni Vento Pressione Umidità
00:00 -2°C° 0.1 mm 7 m/s 754 mm Hg 84%
01:00 -2°C° 0.1 mm 7 m/s 754 mm Hg 84%
02:00 -2°C° 0 mm 8 m/s 753 mm Hg 86%
03:00 -4°C° 0 mm 8 m/s 753 mm Hg 89%
04:00 -4°C° 0 mm 8 m/s 752 mm Hg 92%
05:00 -4°C° 0.3 mm 8 m/s 752 mm Hg 93%
06:00 -4°C° 0.3 mm 8 m/s 752 mm Hg 94%
07:00 -4°C° 0.3 mm 8 m/s 752 mm Hg 95%
08:00 -2°C° 0.1 mm 7 m/s 751 mm Hg 94%
09:00 -2°C° 0.1 mm 7 m/s 751 mm Hg 93%
10:00 -2°C° 0.1 mm 7 m/s 751 mm Hg 92%
11:00 -2°C° 0.1 mm 7 m/s 751 mm Hg 92%
12:00 -2°C° 0.1 mm 7 m/s 751 mm Hg 92%
13:00 -2°C° 0.1 mm 8 m/s 751 mm Hg 92%
14:00 -2°C° 0.2 mm 8 m/s 750 mm Hg 93%
15:00 -2°C° 0.2 mm 8 m/s 750 mm Hg 93%
16:00 -2°C° 0.2 mm 8 m/s 749 mm Hg 94%
17:00 -2°C° 0.7 mm 7 m/s 749 mm Hg 95%
18:00 -2°C° 0.7 mm 7 m/s 749 mm Hg 96%
19:00 -3°C° 0.7 mm 6 m/s 749 mm Hg 97%
20:00 -2°C° 1 mm 5 m/s 749 mm Hg 95%
21:00 -2°C° 1 mm 3 m/s 749 mm Hg 93%
22:00 -3°C° 1 mm 2 m/s 749 mm Hg 92%
23:00 -3°C° 0 mm 2 m/s 749 mm Hg 89%

8 Marzo, Lunedi

Tempo Temperatura Precipitazioni Vento Pressione Umidità
00:00 -4°C° 0 mm 2 m/s 749 mm Hg 87%
01:00 -2°C° 0 mm 1 m/s 749 mm Hg 84%
02:00 -5°C° 0 mm 2 m/s 750 mm Hg 84%
03:00 -5°C° 0 mm 2 m/s 750 mm Hg 84%
04:00 -6°C° 0 mm 3 m/s 750 mm Hg 84%
05:00 -6°C° 0.1 mm 3 m/s 751 mm Hg 86%
06:00 -6°C° 0.1 mm 3 m/s 751 mm Hg 89%
07:00 -5°C° 0.1 mm 4 m/s 752 mm Hg 91%
08:00 -4°C° 0.1 mm 4 m/s 752 mm Hg 86%
09:00 -5°C° 0.1 mm 5 m/s 753 mm Hg 80%
10:00 -4°C° 0.1 mm 6 m/s 753 mm Hg 75%
11:00 -4°C° 0.1 mm 6 m/s 754 mm Hg 73%
12:00 -4°C° 0.1 mm 6 m/s 754 mm Hg 71%
13:00 -3°C° 0.1 mm 7 m/s 755 mm Hg 69%
14:00 -4°C° 0 mm 6 m/s 755 mm Hg 69%
15:00 -4°C° 0 mm 6 m/s 755 mm Hg 69%
16:00 -5°C° 0 mm 6 m/s 756 mm Hg 69%
17:00 -5°C° 0 mm 5 m/s 756 mm Hg 73%
18:00 -5°C° 0 mm 4 m/s 757 mm Hg 77%
19:00 -6°C° 0 mm 3 m/s 758 mm Hg 80%
20:00 -6°C° 0 mm 3 m/s 758 mm Hg 81%
21:00 -5°C° 0 mm 2 m/s 759 mm Hg 81%
22:00 -6°C° 0 mm 2 m/s 759 mm Hg 81%
23:00 -6°C° 0 mm 2 m/s 759 mm Hg 81%

9 Marzo, Martedi

Tempo Temperatura Precipitazioni Vento Pressione Umidità
00:00 -4°C° 0 mm 1 m/s 760 mm Hg 81%
01:00 -4°C° 0 mm 1 m/s 760 mm Hg 80%
02:00 -4°C° 0 mm 1 m/s 760 mm Hg 81%
03:00 -4°C° 0 mm 1 m/s 760 mm Hg 81%
04:00 -4°C° 0 mm 1 m/s 761 mm Hg 81%
05:00 -3°C° 0 mm 1 m/s 761 mm Hg 81%
06:00 -3°C° 0 mm 1 m/s 761 mm Hg 81%
07:00 -3°C° 0 mm 1 m/s 762 mm Hg 80%
08:00 -2°C° 0 mm 1 m/s 762 mm Hg 76%
09:00 -1°C° 0 mm 1 m/s 762 mm Hg 72%
10:00 0°C° 0 mm 1 m/s 762 mm Hg 68%
11:00 +1°C° 0 mm 1 m/s 762 mm Hg 65%
12:00 +1°C° 0 mm 1 m/s 763 mm Hg 62%
13:00 +2°C° 0 mm 1 m/s 763 mm Hg 59%
14:00 +1°C° 0 mm 1 m/s 763 mm Hg 59%
15:00 +1°C° 0 mm 1 m/s 762 mm Hg 59%
16:00 +1°C° 0 mm 1 m/s 762 mm Hg 60%
17:00 -2°C° 0 mm 2 m/s 762 mm Hg 64%
18:00 -3°C° 0 mm 2 m/s 762 mm Hg 69%
19:00 -4°C° 0 mm 2 m/s 763 mm Hg 73%
20:00 -4°C° 0 mm 2 m/s 763 mm Hg 73%
21:00 -4°C° 0 mm 2 m/s 763 mm Hg 73%
22:00 -5°C° 0 mm 3 m/s 763 mm Hg 73%
23:00 -5°C° 0 mm 3 m/s 763 mm Hg 71%
Mostrare altro